McAllen, TX

10:57 AM CST on February 06, 2016 (GMT -0600)
McAllen Miller International

Weather History for KMFE - October, 2013

Change the Weather History Date:

Tuesday, October 29, 2013

  Actual Average Record
Temperature  
Mean Temperature 83 °F 74 °F  
Max Temperature 91 °F 85 °F 94 °F (2004)
Min Temperature 75 °F 64 °F 47 °F (1976)
Degree Days  
Heating Degree Days 0 0  
Month to date heating degree days 0 0  
Since 1 July heating degree days 0 0  
Cooling Degree Days 18 10  
Month to date cooling degree days 392 364  
Year to date cooling degree days 4324 4163  
Growing Degree Days 32 (Base 50)    
Moisture  
Dew Point 71 °F    
Average Humidity 67    
Maximum Humidity 87    
Minimum Humidity 46    
Precipitation  
Precipitation 0.00 in 0.05 in 1.67 in (1976)
Month to date precipitation 0.14 1.97  
Year to date precipitation 12.30 20.01  
Sea Level Pressure  
Sea Level Pressure 29.99 in    
Wind  
Wind Speed 15 mph (SE)    
Max Wind Speed 24 mph    
Max Gust Speed 30 mph    
Visibility 10 miles    
Events      
T = Trace of Precipitation, MM = Missing Value Source: NWS Daily Summary

Daily Weather History Graph

Daily Weather History Graph

Search for Another Location

Airport or City:

Trip Planner

Search our weather history database for the weather conditions in past years. The results will help you decide how hot, cold, wet, or windy it might be!

Date:

Astronomy

Oct. 29, 2013 Rise Set
Actual Time 7:40 AM CDT 6:52 PM CDT
Civil Twilight 7:16 AM CDT 7:16 PM CDT
Nautical Twilight 6:49 AM CDT 7:43 PM CDT
Astronomical Twilight 6:22 AM CDT 8:10 PM CDT
Moon 2:59 AM CDT (10/29) 3:42 PM CDT (10/29)
Length of Visible Light 12h 00m
Length of Day
11h 12m
Waning Crescent, 25% of the Moon is Illuminated
Oct 29
Waning Crescent
Nov 3
New
Nov 9
First Quarter
Nov 17
Full
Nov 25
Last Quarter

Hourly Weather History & Observations

Time (CDT) Temp. Heat Index Dew Point Humidity Pressure Visibility Wind Dir Wind Speed Gust Speed Precip Events Conditions
12:53 AM 78.1 °F - 73.0 °F 84% 30.03 in 10.0 mi SE 12.7 mph - N/A   Mostly Cloudy
1:09 AM 78.8 °F - 73.4 °F 83% 30.02 in 10.0 mi SE 13.8 mph - N/A   Mostly Cloudy
1:53 AM 78.1 °F - 72.0 °F 81% 30.01 in 10.0 mi SE 11.5 mph - N/A   Mostly Cloudy
2:05 AM 78.8 °F - 71.6 °F 78% 30.01 in 10.0 mi SE 13.8 mph - N/A   Mostly Cloudy
2:53 AM 77.0 °F - 72.0 °F 84% 30.00 in 10.0 mi SE 13.8 mph - N/A   Partly Cloudy
3:53 AM 77.0 °F - 72.0 °F 84% 29.99 in 10.0 mi SSE 12.7 mph - N/A   Partly Cloudy
4:53 AM 75.9 °F - 72.0 °F 87% 29.99 in 10.0 mi SE 11.5 mph - N/A   Clear
5:53 AM 75.9 °F - 72.0 °F 87% 30.00 in 10.0 mi SE 12.7 mph - N/A   Scattered Clouds
6:53 AM 75.9 °F - 72.0 °F 87% 30.00 in 10.0 mi SE 11.5 mph - N/A   Partly Cloudy
7:53 AM 75.0 °F - 72.0 °F 90% 30.01 in 10.0 mi SE 8.1 mph - N/A   Clear
8:53 AM 78.1 °F - 73.0 °F 84% 30.02 in 10.0 mi SSE 13.8 mph - N/A   Partly Cloudy
9:53 AM 80.1 °F 84.2 °F 73.0 °F 79% 30.03 in 10.0 mi SE 18.4 mph - N/A   Mostly Cloudy
10:37 AM 82.4 °F 87.2 °F 71.6 °F 70% 30.05 in 10.0 mi SE 18.4 mph 26.5 mph N/A   Scattered Clouds
10:53 AM 82.9 °F 88.0 °F 72.0 °F 69% 30.05 in 10.0 mi SSE 16.1 mph - N/A   Mostly Cloudy
11:53 AM 84.9 °F 90.7 °F 72.0 °F 65% 30.04 in 10.0 mi SSE 16.1 mph 23.0 mph N/A   Mostly Cloudy
12:53 PM 87.1 °F 92.0 °F 70.0 °F 57% 30.01 in 10.0 mi SE 18.4 mph 23.0 mph N/A   Mostly Cloudy
1:53 PM 89.1 °F 93.7 °F 69.1 °F 52% 29.98 in 10.0 mi SE 16.1 mph - N/A   Partly Cloudy
2:53 PM 90.0 °F 92.8 °F 66.9 °F 46% 29.95 in 10.0 mi SSE 18.4 mph - N/A   Partly Cloudy
3:53 PM 90.0 °F 92.8 °F 66.9 °F 46% 29.92 in 10.0 mi SE 20.7 mph 27.6 mph N/A   Partly Cloudy
4:53 PM 89.1 °F 92.1 °F 66.9 °F 48% 29.92 in 10.0 mi SE 16.1 mph 25.3 mph N/A   Clear
5:53 PM 87.1 °F 88.9 °F 64.9 °F 48% 29.93 in 10.0 mi SSE 20.7 mph 26.5 mph N/A   Clear
6:53 PM 84.0 °F 86.5 °F 66.9 °F 56% 29.94 in 10.0 mi SE 18.4 mph - N/A   Clear
7:53 PM 82.0 °F 85.9 °F 70.0 °F 67% 29.96 in 10.0 mi SE 12.7 mph - N/A   Clear
8:53 PM 80.1 °F 83.2 °F 70.0 °F 71% 29.97 in 10.0 mi ESE 12.7 mph - N/A   Clear
9:53 PM 80.1 °F 84.2 °F 73.0 °F 79% 29.99 in 10.0 mi ESE 11.5 mph - N/A   Clear
10:53 PM 79.0 °F - 73.0 °F 82% 29.99 in 10.0 mi ESE 15.0 mph - N/A   Clear
11:41 PM 78.8 °F - 73.4 °F 83% 29.99 in 10.0 mi SE 11.5 mph - N/A   Mostly Cloudy
11:53 PM 79.0 °F - 73.0 °F 82% 29.99 in 10.0 mi SE 12.7 mph - N/A   Overcast